Location: Newark
(42.1667°N, 14.5667°E)
Time: 18:29:47
(UTC+00:00)

Envisat - Pass Details

Date: 31 January 2020
Orbit: 764 x 766 km, 98.1° (Epoch: 22 February)

Event Time Altitude Azimuth Distance (km) Brightness Sun altitude
Rises 17:03:37 0° 174° (S) 3,218 6.3 -9.5°
Reaches altitude 10° 17:05:56 10° 177° (S) 2,296 5.6 -9.9°
Maximum altitude 17:10:57 64° 259° (WSW) 850 3.6 -10.8°
Drops below altitude 10° 17:16:00 10° 341° (NNW) 2,311 5.6 -11.7°
Sets 17:18:21 0° 344° (NNW) 3,242 6.3 -12.2°
